FW0896 Weather Reports


time (UTC)temp
F
wind
direction
speed
knots
gust
knots
rain 1hr
in
rain 24hr
in
rain mn
in
humidity
%
barometer
mb
20260510051555 47 335 3.5 5.2 0.00 0.00 0.00 44 1016.4
20260510050052 48 331 3.5 5.2 0.00 0.00 0.00 44 1016.3
20260510044550 48 335 3.5 5.2 0.00 0.00 0.00 44 1016.2
20260510043053 48 337 3.5 5.2 0.00 0.00 0.00 44 1016.0
20260510041548 48 338 2.6 4.3 0.00 0.00 0.00 43 1016.0
20260510040050 49 335 3.5 5.2 0.00 0.00 0.00 42 1015.8
20260510034552 49 333 3.5 4.3 0.00 0.00 0.00 41 1015.7
20260510033042 50 330 4.3 6.1 0.00 0.00 0.00 40 1015.5
20260510031556 51 338 4.3 7.0 0.00 0.00 0.00 38 1015.2
20260510030039 50 336 5.2 7.8 0.00 0.00 0.00 39 1015.1
20260510024538 51 339 5.2 7.8 0.00 0.00 0.00 38 1014.9
20260510023041 51 337 5.2 7.0 0.00 0.00 0.00 37 1014.6
20260510021535 52 340 5.2 7.0 0.00 0.00 0.00 37 1014.2
20260510020029 53 345 5.2 7.8 0.00 0.00 0.00 34 1013.7
20260510014527 54 338 6.1 7.8 0.00 0.00 0.00 33 1013.4
20260510013025 55 329 6.1 7.8 0.00 0.00 0.00 33 1013.1
20260510011523 55 335 7.0 11.3 0.00 0.00 0.00 34 1012.9
20260510010021 56 342 10.4 13.0 0.00 0.00 0.00 33 1012.5
20260510004519 57 348 8.7 13.9 0.00 0.00 0.00 32 1012.4
20260510003019 58 347 10.4 15.6 0.00 0.00 0.00 31 1012.2
20260510001515 58 339 11.3 14.8 0.00 0.00 0.00 31 1012.1
20260510000014 59 328 9.6 16.5 0.00 0.00 0.00 31 1011.8
20260509234522 59 345 10.4 16.5 0.00 0.00 0.00 30 1011.7
20260509233010 60 350 8.7 18.2 0.00 0.00 0.00 29 1011.4
20260509231509 60 337 10.4 19.1 0.00 0.00 0.00 29 1011.3
20260509230007 60 349 10.4 18.2 0.00 0.00 0.00 29 1011.1
20260509224506 60 331 9.6 16.5 0.00 0.00 0.00 28 1010.9
20260509223003 61 323 10.4 17.4 0.00 0.00 0.00 28 1010.7
20260509221502 61 327 10.4 14.8 0.00 0.00 0.00 29 1010.4
20260509214559 61 345 13.0 19.1 0.00 0.00 0.00 28 1010.1
20260509213057 60 330 8.7 20.0 0.00 0.00 0.00 31 1010.0
20260509211555 61 350 11.3 16.5 0.00 0.00 0.00 31 1009.8
20260509210105 60 345 12.2 18.2 0.00 0.00 0.00 31 1009.7
20260509204557 61 327 10.4 20.0 0.00 0.00 0.00 30 1009.6
20260509203051 60 345 11.3 19.1 0.00 0.00 0.00 33 1009.6
20260509201550 61 345 13.9 18.2 0.00 0.00 0.00 31 1009.4
20260509200051 60 342 16.5 20.0 0.00 0.00 0.00 32 1009.3
20260509194547 60 314 7.8 20.0 0.00 0.00 0.00 34 1009.1
20260509193044 60 346 13.9 20.0 0.00 0.00 0.00 33 1009.0
20260509191544 61 338 11.3 20.9 0.00 0.00 0.00 33 1008.9
20260509190052 60 348 16.5 20.9 0.00 0.00 0.00 35 1008.5
20260509184603 61 355 16.5 21.7 0.00 0.00 0.00 36 1008.7
20260509183038 60 338 11.3 19.1 0.00 0.00 0.00 39 1008.5
20260509181544 59 330 8.7 18.2 0.00 0.00 0.00 40 1008.5
20260509180036 58 338 6.1 20.9 0.00 0.00 0.00 40 1008.4
20260509174537 59 341 12.2 17.4 0.00 0.00 0.00 40 1008.1
20260509173035 59 328 12.2 18.2 0.00 0.00 0.00 43 1008.0
20260509171533 58 339 12.2 19.1 0.00 0.00 0.00 44 1008.1
20260509170032 58 338 9.6 18.2 0.00 0.00 0.00 48 1008.2
20260509164530 58 333 13.9 19.1 0.00 0.00 0.00 47 1008.1
20260509163036 57 339 9.6 17.4 0.00 0.00 0.00 54 1007.8
20260509161526 57 358 9.6 17.4 0.00 0.00 0.00 56 1007.7
20260509160026 56 343 15.6 19.1 0.00 0.00 0.00 56 1007.5
20260509154523 56 340 13.9 17.4 0.00 0.00 0.00 60 1007.4
20260509153023 56 346 13.0 20.0 0.00 0.00 0.00 62 1007.2
20260509151520 56 340 10.4 17.4 0.00 0.00 0.00 64 1007.2
20260509150024 55 336 10.4 16.5 0.00 0.00 0.00 65 1007.0
20260509144519 55 339 13.0 16.5 0.00 0.00 0.00 68 1006.8
20260509143015 55 338 11.3 16.5 0.00 0.00 0.00 69 1006.5
20260509141528 55 321 8.7 12.2 0.00 0.00 0.00 69 1006.4
20260509140011 55 331 10.4 15.6 0.00 0.00 0.00 70 1006.3
20260509134512 54 316 8.7 13.0 0.00 0.00 0.00 69 1006.2
20260509133006 54 331 8.7 17.4 0.00 0.00 0.00 67 1005.7
20260509131508 54 330 7.8 11.3 0.00 0.00 0.00 64 1005.7
20260509130003 52 316 3.5 4.3 0.00 0.00 0.00 62 1005.6
20260509124500 51 283 2.6 3.5 0.00 0.00 0.00 60 1005.8
20260509123101 51 285 0.9 2.6 0.00 0.00 0.00 60 1005.1
20260509121558 50 297 1.7 3.5 0.00 0.00 0.00 60 1005.4
20260509120057 50 328 2.6 4.3 0.00 0.00 0.00 59 1005.4
20260509114556 50 329 3.5 6.1 0.00 0.00 0.00 57 1005.1
20260509113118 51 323 6.1 7.8 0.00 0.00 0.00 56 1004.8
20260509111600 51 333 7.0 9.6 0.00 0.00 0.00 55 1004.5
20260509110049 50 311 3.5 4.3 0.00 0.00 0.00 57 1004.1
20260509104557 51 293 3.5 5.2 0.00 0.00 0.00 54 1003.6
20260509103056 51 320 6.1 13.9 0.00 0.00 0.00 54 1003.9
20260509101547 47 219 4.3 7.0 0.00 0.00 0.00 57 1002.6
20260509100105 47 231 4.3 6.1 0.00 0.00 0.00 57 1002.6
20260509094551 47 224 4.3 6.1 0.00 0.00 0.00 57 1002.7
20260509093045 46 224 4.3 6.1 0.00 0.00 0.00 58 1002.8
20260509091551 46 231 5.2 6.1 0.00 0.00 0.00 59 1002.9
20260509090042 46 226 5.2 7.0 0.00 0.00 0.00 58 1003.0
20260509084540 46 226 5.2 6.1 0.00 0.00 0.00 57 1003.0
20260509083043 47 230 4.3 6.1 0.00 0.00 0.00 56 1003.0
20260509081535 48 211 6.1 7.8 0.00 0.00 0.00 54 1002.9
20260509080044 48 237 4.3 6.1 0.00 0.00 0.00 55 1002.7
20260509074530 49 233 5.2 7.8 0.00 0.00 0.00 52 1003.1
20260509073026 49 233 5.2 7.0 0.00 0.00 0.00 52 1003.3
20260509071523 50 233 3.5 4.3 0.00 0.00 0.00 51 1003.4
20260509070023 50 231 3.5 5.2 0.00 0.00 0.00 51 1003.6
20260509064528 50 233 3.5 5.2 0.00 0.00 0.00 50 1003.5
20260509063017 51 237 2.6 5.2 0.00 0.00 0.00 47 1003.8
20260509061532 54 322 1.7 2.6 0.00 0.00 0.00 45 1004.0
20260509060012 54 322 1.7 2.6 0.00 0.00 0.00 44 1004.2
20260509054511 54 322 1.7 2.6 0.00 0.00 0.00 43 1004.1
20260509053021 55 323 1.7 3.5 0.00 0.00 0.00 44 1004.1